This demonstration page uses our WeatherBlox Daily Observations layout. Learn more.

Left ArrowRight Arrow

40.92945, -100.16068

Hourly Observations for December 15, 2020

Temp ( °F °C ) Dew Point ( °F °C ) Humidity (%) Winds ( mph kmh ) Pressure ( in mb ) Visibility ( mi km ) Precip ( " mm )
12:15 am 00:15 Cloudy with Light Snow 23 -5.2 20 -6.5 91 91 E 13 20 30.26 1025 1.25 2.011675 0 0
12:35 am 00:35 Cloudy with Light Snow 22 -5.3 20 -6.6 91 91 E 13 20 30.26 1025 2 3.21868 0 0
12:55 am 00:55 Cloudy with Light Snow 22 -5.3 20 -6.7 90 90 E 13 20 30.25 1024 2.5 4.02335 0 0
1:15 am 01:15 Cloudy with Light Snow 22 -5.6 19 -7 90 90 E 14 22 30.23 1024 2.5 4.02335 0 0
1:35 am 01:35 Cloudy 22 -5.5 20 -6.9 90 90 E 12 19 30.23 1024 10 16.0934 0 0
1:55 am 01:55 Cloudy 22 -5.5 20 -6.9 90 90 E 13 20 30.23 1024 10 16.0934 0 0
2:15 am 02:15 Cloudy with Mist and Fog 22 -5.5 20 -6.7 91 91 E 12 19 30.23 1024 5 8.0467 0 0
2:35 am 02:35 Cloudy with Light Snow 22 -5.7 19 -7 91 91 E 10 17 30.24 1024 2.5 4.02335 0 0
2:55 am 02:55 Cloudy with Light Snow 22 -5.6 20 -6.9 91 91 ESE 10 17 30.22 1024 2.5 4.02335 0 0
3:15 am 03:15 Cloudy with Light Snow 22 -5.5 20 -6.6 92 92 ESE 10 17 30.22 1023 1.75 2.816345 0 0
3:35 am 03:35 Cloudy with Light Snow 22 -5.3 20 -6.5 91 91 ESE 8 13 30.22 1023 1.5 2.41401 0.01 0.254
3:55 am 03:55 Cloudy with Light Snow 22 -5.5 20 -6.6 92 92 E 9 15 30.22 1023 1.25 2.011675 0.01 0.254
4:15 am 04:15 Cloudy with Light Snow 22 -5.5 20 -6.6 92 92 ESE 8 13 30.22 1023 1 1.60934 0 0
4:35 am 04:35 Cloudy with Light Snow 22 -5.5 20 -6.6 92 92 E 7 11 30.22 1023 1.5 2.41401 0.01 0.254
4:55 am 04:55 Cloudy with Light Snow 22 -5.5 20 -6.7 91 91 E 8 13 30.21 1023 1.5 2.41401 0.01 0.254
5:15 am 05:15 Cloudy with Light Snow 22 -5.5 20 -6.8 91 91 E 6 9 30.22 1023 1.25 2.011675 0.01 0.254
5:35 am 05:35 Cloudy with Snow 22 -5.5 20 -6.7 91 91 E 6 9 30.22 1023 1 1.60934 0.02 0.508
5:55 am 05:55 Cloudy with Light Snow 22 -5.5 20 -6.7 91 91 E 6 9 30.23 1024 1.75 2.816345 0.02 0.508
6:15 am 06:15 Cloudy with Light Snow 22 -5.5 20 -6.7 91 91 E 7 11 30.23 1024 1.5 2.41401 0.01 0.254
6:35 am 06:35 Cloudy with Light Snow 22 -5.6 20 -6.8 91 91 E 6 9 30.23 1024 2.5 4.02335 0.01 0.254
6:55 am 06:55 Cloudy with Light Snow 22 -5.6 20 -6.7 92 92 E 5 7 30.24 1024 1.5 2.41401 0.01 0.254
7:15 am 07:15 Cloudy with Light Snow 22 -5.6 20 -6.7 92 92 E 6 9 30.24 1024 1.25 2.011675 0 0
7:35 am 07:35 Cloudy with Light Snow 22 -5.6 20 -6.8 91 91 E 5 7 30.24 1024 1.5 2.41401 0.01 0.254
7:55 am 07:55 Cloudy with Snow 22 -5.6 20 -6.8 91 91 E 5 7 30.24 1024 1.25 2.011675 0.01 0.254
8:15 am 08:15 Cloudy with Snow 22 -5.7 20 -6.8 92 92 E 5 7 30.26 1025 0.75 1.207005 0.01 0.254
8:35 am 08:35 Cloudy with Snow 22 -5.7 19 -7 91 91 E 6 9 30.26 1025 0.5 0.80467 0.02 0.508
8:55 am 08:55 Cloudy with Light Snow 22 -5.7 19 -7 91 91 ENE 6 9 30.27 1025 0.5 0.80467 0.02 0.508
9:15 am 09:15 Cloudy with Light Snow 22 -5.7 19 -7 91 91 E 6 9 30.27 1025 0.5 0.80467 0.01 0.254
9:35 am 09:35 Cloudy with Light Snow 22 -5.7 19 -7 91 91 ENE 6 9 30.27 1025 0.5 0.80467 0.02 0.508
9:55 am 09:55 Cloudy with Light Snow 22 -5.6 19 -7 90 90 E 7 11 30.27 1025 1.25 2.011675 0.03 0.762
10:15 am 10:15 Cloudy with Light Snow 22 -5.5 19 -7 89 89 E 6 9 30.27 1025 5 8.0467 0.01 0.254
10:35 am 10:35 Cloudy with Mist and Fog 22 -5.5 19 -7.1 89 89 ENE 7 11 30.28 1026 5 8.0467 0.02 0.508
10:55 am 10:55 Cloudy with Light Snow 22 -5.3 19 -7.1 87 87 E 8 13 30.27 1025 7 11.26538 0.04 1.016
11:15 am 11:15 Cloudy 23 -5 19 -7.1 85 85 E 6 9 30.27 1025 7 11.26538 0 0
11:35 am 11:35 Cloudy 23 -5 19 -7.1 85 85 ENE 7 11 30.26 1025 7 11.26538 0 0
11:55 am 11:55 Cloudy 23 -5 19 -7.1 85 85 E 5 7 30.26 1025 10 16.0934 0 0
12:15 pm 12:15 Cloudy 23 -5 19 -7 86 86 E 6 9 30.25 1024 10 16.0934 0 0
12:35 pm 12:35 Cloudy 23 -5 19 -7 86 86 E 5 7 30.24 1024 7 11.26538 0 0
12:55 pm 12:55 Cloudy 23 -4.9 20 -6.8 87 87 ENE 5 7 30.23 1024 7 11.26538 0 0
1:15 pm 13:15 Cloudy with Light Snow 23 -5 20 -6.7 88 88 E 5 7 30.22 1023 5 8.0467 0.01 0.254
1:35 pm 13:35 Cloudy with Light Snow 23 -4.8 20 -6.7 87 87 E 5 7 30.22 1023 5 8.0467 0.01 0.254
1:55 pm 13:55 Cloudy with Light Snow 24 -4.7 20 -6.5 87 87 ESE 3 6 30.2 1023 4 6.43736 0.01 0.254
2:15 pm 14:15 Cloudy with Mist and Fog 24 -4.6 20 -6.5 87 87 Calm 30.19 1022 5 8.0467 0 0
2:35 pm 14:35 Cloudy with Light Snow 24 -4.6 20 -6.5 87 87 Calm 30.19 1022 4 6.43736 0.01 0.254
2:55 pm 14:55 Cloudy with Light Snow 24 -4.7 20 -6.5 87 87 Calm 30.18 1022 2 3.21868 0.02 0.508
3:15 pm 15:15 Cloudy with Light Snow 24 -4.7 20 -6.5 87 87 Calm 30.18 1022 1.75 2.816345 0 0
3:35 pm 15:35 Cloudy with Light Snow 23 -4.8 20 -6.5 88 88 Calm 30.19 1022 2 3.21868 0 0
3:55 pm 15:55 Cloudy with Light Snow 23 -4.8 20 -6.5 88 88 Calm 30.19 1022 2.5 4.02335 0 0
4:15 pm 16:15 Cloudy with Mist and Fog 23 -5 20 -6.5 89 89 Calm 30.2 1023 5 8.0467 0 0
4:35 pm 16:35 Cloudy with Light Snow 23 -5.1 20 -6.6 89 89 Calm 30.2 1023 3 4.82802 0 0
4:55 pm 16:55 Cloudy with Light Snow 23 -5 20 -6.6 89 89 Calm 30.2 1023 2.5 4.02335 0 0
5:15 pm 17:15 Cloudy with Light Snow 23 -5.1 20 -6.6 89 89 Calm 30.2 1023 2 3.21868 0 0
5:35 pm 17:35 Cloudy with Light Snow 23 -5.2 20 -6.5 91 91 Calm 30.21 1023 4 6.43736 0 0
5:55 pm 17:55 Cloudy with Light Snow 22 -5.6 20 -6.6 93 93 Calm 30.2 1023 2.5 4.02335 0 0
6:15 pm 18:15 Cloudy with Mist and Fog 22 -5.5 20 -6.5 93 93 Calm 30.2 1023 5 8.0467 0 0
6:35 pm 18:35 Cloudy with Mist and Fog 22 -5.8 20 -6.7 93 93 Calm 30.21 1023 5 8.0467 0 0
6:55 pm 18:55 Cloudy with Mist and Fog 21 -6 19 -7 93 93 Calm 30.21 1023 5 8.0467 0 0
7:15 pm 19:15 Cloudy with Mist and Fog 20 -6.6 19 -7.4 94 94 Calm 30.21 1023 5 8.0467 0 0
7:35 pm 19:35 Mostly Cloudy with Light Snow 19 -7 18 -7.9 93 93 Calm 30.22 1023 3 4.82802 0 0
7:55 pm 19:55 Cloudy with Light Snow 17 -8.3 15 -9.5 91 91 Calm 30.23 1024 0.5 0.80467 0 0
8:15 pm 20:15 Cloudy with Freezing Fog 12 -10.9 10 -12.5 88 88 Calm 30.26 1025 0.25 0.402335 0 0
8:35 pm 20:35 Cloudy with Freezing Fog 11 -11.5 9 -13 89 89 Calm 30.27 1025 0.25 0.402335 0 0
8:55 pm 20:55 Cloudy with Freezing Fog 10 -12.5 7 -14 89 89 W 5 7 30.27 1025 N/A 0 0
9:15 pm 21:15 Cloudy with Mist and Fog 13 -10.4 11 -11.8 90 90 Calm 30.24 1024 1.75 2.816345 0 0
9:35 pm 21:35 Cloudy with Mist and Fog 15 -9.6 12 -10.9 90 90 Calm 30.23 1024 4 6.43736 0 0
9:55 pm 21:55 Cloudy with Mist and Fog 17 -8.3 15 -9.5 91 91 SSW 3 6 30.21 1023 5 8.0467 0 0
10:15 pm 22:15 Cloudy with Mist and Fog 18 -7.6 17 -8.6 93 93 Calm 30.19 1023 5 8.0467 0 0
10:35 pm 22:35 Cloudy with Mist and Fog 19 -7.2 17 -8.4 91 91 Calm 30.18 1022 5 8.0467 0 0
10:55 pm 22:55 Cloudy with Mist and Fog 19 -7 18 -8 93 93 Calm 30.18 1022 5 8.0467 0 0
11:15 pm 23:15 Cloudy with Mist and Fog 20 -6.8 18 -7.9 92 92 Calm 30.17 1022 5 8.0467 0 0
11:35 pm 23:35 Cloudy with Mist and Fog 20 -6.4 19 -7.3 93 93 Calm 30.17 1022 5 8.0467 0 0
11:55 pm 23:55 Cloudy with Mist and Fog 20 -6.5 19 -7.5 93 93 Calm 30.16 1021 5 8.0467 0 0

Powered by AerisWeather